Weather History for KXNA - April, 2014

Change the Weather History Date:

Tuesday, April 15, 2014

  Actual Average Record
Temperature  
Mean Temperature 40 °F -  
Max Temperature 57 °F - - ()
Min Temperature 26 °F - - ()
Degree Days  
Heating Degree Days 24    
Moisture  
Dew Point 24 °F    
Average Humidity 52    
Maximum Humidity 85    
Minimum Humidity 27    
Precipitation  
Precipitation 0.00 in - - ()
Sea Level Pressure  
Sea Level Pressure 30.19 in    
Wind  
Wind Speed 4 mph (West)    
Max Wind Speed 9 mph    
Max Gust Speed -    
Visibility 10 miles    
Events      
T = Trace of Precipitation, MM = Missing Value Source: NWS Daily Summary

Daily Weather History Graph

Daily Weather History Graph

Search for Another Location

Airport or City:

Trip Planner

Search our weather history database for the weather conditions in past years. The results will help you decide how hot, cold, wet, or windy it might be!

Date:

Astronomy

Apr. 15, 2014 Rise Set
Actual Time 6:43 AM CDT 7:51 PM CDT
Civil Twilight 6:17 AM CDT 8:17 PM CDT
Nautical Twilight 5:45 AM CDT 8:49 PM CDT
Astronomical Twilight 5:13 AM CDT 9:22 PM CDT
Moon 8:31 PM CDT (4/15) 6:52 AM CDT (4/15)
Length of Visible Light 14h 00m
Length of Day
13h 07m
Full, 100% of the Moon is Illuminated
Apr 15
Full
Apr 22
Last Quarter
Apr 29
New
May 6
First Quarter
May 14
Full

Hourly Weather History & Observations

Time (CDT) Temp. Windchill Dew Point Humidity Pressure Visibility Wind Dir Wind Speed Gust Speed Precip Events Conditions
12:53 AM 30.9 °F 26.2 °F 21.9 °F 69% 30.20 in 10.0 mi NW 4.6 mph - N/A   Clear
1:53 AM 30.0 °F 25.2 °F 21.0 °F 69% 30.20 in 10.0 mi NW 4.6 mph - N/A   Clear
2:53 AM 30.9 °F 26.2 °F 19.9 °F 64% 30.20 in 10.0 mi NW 4.6 mph - N/A   Clear
3:53 AM 30.0 °F 25.2 °F 19.9 °F 66% 30.21 in 10.0 mi WNW 4.6 mph - N/A   Clear
4:53 AM 30.0 °F - 19.9 °F 66% 30.22 in 10.0 mi Calm Calm - N/A   Clear
5:53 AM 27.0 °F - 21.9 °F 81% 30.22 in 10.0 mi Calm Calm - N/A   Clear
6:53 AM 26.1 °F - 21.9 °F 84% 30.23 in 10.0 mi Calm Calm - N/A   Clear
7:53 AM 28.9 °F - 25.0 °F 85% 30.25 in 10.0 mi Calm Calm - N/A   Clear
8:53 AM 35.1 °F 32.2 °F 27.0 °F 72% 30.25 in 10.0 mi SSE 3.5 mph - N/A   Clear
9:53 AM 39.9 °F 36.7 °F 25.0 °F 55% 30.26 in 10.0 mi SE 4.6 mph - N/A   Clear
10:53 AM 44.1 °F 42.5 °F 24.1 °F 45% 30.26 in 10.0 mi Variable 3.5 mph - N/A   Clear
11:53 AM 46.9 °F - 21.9 °F 37% 30.25 in 10.0 mi Variable 3.5 mph - N/A   Clear
12:53 PM 51.1 °F - 24.1 °F 35% 30.22 in 10.0 mi SW 8.1 mph - N/A   Clear
1:53 PM 55.0 °F - 24.1 °F 30% 30.20 in 10.0 mi North 9.2 mph - N/A   Clear
2:53 PM 55.9 °F - 24.1 °F 29% 30.19 in 10.0 mi NNW 9.2 mph - N/A   Clear
3:53 PM 55.0 °F - 21.9 °F 28% 30.16 in 10.0 mi West 8.1 mph - N/A   Clear
4:53 PM 55.9 °F - 23.0 °F 28% 30.14 in 10.0 mi Calm Calm - N/A   Clear
5:53 PM 55.9 °F - 21.9 °F 27% 30.13 in 10.0 mi Calm Calm - N/A   Clear
6:53 PM 54.0 °F - 23.0 °F 30% 30.12 in 10.0 mi Calm Calm - N/A   Clear
7:53 PM 51.1 °F - 26.1 °F 38% 30.12 in 10.0 mi ESE 3.5 mph - N/A   Clear
8:53 PM 48.9 °F - 26.1 °F 41% 30.12 in 10.0 mi ESE 3.5 mph - N/A   Clear
9:53 PM 46.9 °F - 26.1 °F 44% 30.14 in 10.0 mi Calm Calm - N/A   Clear
10:53 PM 42.1 °F 37.7 °F 28.0 °F 58% 30.14 in 10.0 mi SSE 6.9 mph - N/A   Clear
11:53 PM 41.0 °F 35.8 °F 28.9 °F 62% 30.12 in 10.0 mi SSE 8.1 mph - N/A   Clear